Other Surface Observations
Issued by NWS

Home | Current Version | Previous Version | Text Only | Print | Product List | Glossary On
Versions: 1 2 3 4 5 6 7 8 9 10 11 12 13 14 15 16 17 18 19 20 21 22 23 24 25 26 27 28 29 30 31 32 33 34 35 36 37 38 39 40 41 42 43 44 45 46 47 48 49 50
607
SXUS52 KTAE 031019
OSOTAE
OSOTAE
North Florida/South Alabama/Southwest Georgia Weather Roundup
National Weather Service Tallahassee Florida
600 AM EDT TUE MAY 03 2016

Note: "fair" indicates few or no clouds below 12,000 feet with no
significant weather and/or obstructions to visibility.

!FLZ017-115-028-034-025-031100
...North Florida...

CITY           SKY/WX    TMP DP  RH WIND       PRES   REMARKS
TALLAHASSEE    FOG       70  68  93 CALM      29.91R VSB 1/8
APALACHICOLA   CLEAR     71  71 100 CALM      29.90S
PERRY          PTCLDY    67  66  96 E3        29.92S FOG
CROSS CITY       N/A     67  65  93 CALM      29.92S
JACKSONVILLE   CLOUDY    71  69  93 W8        29.91R
$$

!FLZ112-006-005-002-011-031100
...Florida Panhandle...

CITY           SKY/WX    TMP DP  RH WIND       PRES   REMARKS
MARIANNA       PTCLDY    71  71 100 W3        29.90S
BONIFAY        NOT AVBL
PANAMA CITY NW FOG       68  67  96 CALM      29.90R VSB 1/2
TYNDALL AFB    CLEAR     74  72  92 W5        29.91R
TYND DRONE APT FAIR      74  73  95 CALM      29.91R
DE FUNIAK SPR  FOG       68  68 100 CALM      29.92S VSB 1/4
EGLIN AFB      PTCLDY    70  68  94 CALM      29.90F
DESTIN         MOCLDY    77  75  93 W3        29.90S
HURLBURT       PTCLDY    70  69  95 CALM      29.89F
CRESTVIEW      FOG       65  64  97 CALM      29.92S VSB 1
PENSACOLA      PTCLDY    69  66  90 CALM      29.90S
$$

!ALZ063-066-031100
...South Alabama...

CITY           SKY/WX    TMP DP  RH WIND       PRES   REMARKS
DOTHAN         CLOUDY    71  69  93 W6        29.94S
OZARK CAIRNS   MOCLDY    69  69  99 W3        29.90F
FT RUCKER HELI CLOUDY    69  66  90 CALM      29.90R
RUCKER HELI 3  FAIR      67  67  97 W2        29.92R FOG
RUCKER HELI 2  NOT AVBL
FLORALA APT    PTCLDY    65  64  97 SW3       29.93R FOG
ANDALUSIA      MOCLDY    70  64  83 NW5       29.92R
TROY           CLOUDY    68  66  93 NW3       29.92S FOG
EUFALA         CLOUDY    68  65  90 NW3       29.89S
MOBILE         FOG       70  70 100 CALM      29.91S VSB 1/2
$$

!GAZ120>161-031100
...Southwest and South Central Georgia...

CITY           SKY/WX    TMP DP  RH WIND       PRES   REMARKS
THOMASVILLE    FAIR      68  68 100 CALM      29.91S
BAINBRIDGE     PTCLDY    72  70  94 SW6       29.90S
MOODY AFB      PTCLDY    68  68 100 S5        29.89F
VALDOSTA       MOCLDY    69  69 100 S3        29.91S FOG
MOULTRIE       CLEAR     70  68  94 CALM      29.91F
BLAKELY        CLOUDY    73  72  94 CALM      29.91R
ALBANY         CLOUDY    71  69  93 SW3       29.91S
TIFTON         CLOUDY    70  70 100 CALM      29.90S
FITZGERALD     PTSUNNY   71  70  96 CALM      29.92S
CORDELE        PTSUNNY   71  70  98 CALM      29.90S
AMERICUS       PTSUNNY   66  66 100 CALM      29.92R
HOMERVILLE     FAIR      70  70 100 CALM      29.91F
$$

!GMZ750-755-770-775-031100
...Coastal and Buoy Obs...

STATION/POSITION TIME  TEMP    WIND        PRES    VSBY  WAVE
                       AIR SEA DIR/SP/G                  HT/PER
                 (UTC) (F)     (DEG/KT/KT) (MB)    (MI)  (FT/S)
KEATON BEACH     1000   76     220/  9/ 12 1012.8S
CEDAR KEY        1000   77     200/  8/ 10 1013.9R
C TOWER          1000   75     250/  8/  8 1013.6R
APALACHICOLA BUO 0950   76 76  200/  4/  4 1012.8R         2/ 6
PANAMA CITY BUOY 0950   77 78  230/  8/ 10 1013.3R         2/ 7
MOBILE BUOY      1000   75 76     CALM     1012.5R
ORANGE BCH AL BU 0950   75 76  230/  4/  6 1011.5F         2/ 7
$$




USA.gov is the U.S. government's official web portal to all federal, state and local government web resources and services.